Weather History for Meadville, PA

Change the Weather History Date:

Monday, April 14, 2014

  Actual Average Record
Temperature  
Mean Temperature 61 °F -  
Max Temperature 71 °F 58 °F 82 °F (1977)
Min Temperature 51 °F 33 °F 16 °F (1950)
Degree Days  
Heating Degree Days 4    
Growing Degree Days 11 (Base 50)    
Moisture  
Dew Point 51 °F    
Average Humidity 73    
Maximum Humidity 94    
Minimum Humidity 38    
Precipitation  
Precipitation 0.15 in - - ()
Sea Level Pressure  
Sea Level Pressure 29.67 in    
Wind  
Wind Speed 10 mph (SW)    
Max Wind Speed 21 mph    
Max Gust Speed 33 mph    
Visibility 10 miles    
Events Rain    
Averages and records for this station are not official NWS values.
T = Trace of Precipitation, MM = Missing Value Source: NWS Daily Summary

Daily Weather History Graph

Daily Weather History Graph

Search for Another Location

Airport:

Trip Planner

Search our weather history database for the weather conditions in past years. The results will help you decide how hot, cold, wet, or windy it might be!

Date:

Astronomy

Apr. 14, 2014 Rise Set
Actual Time 6:42 AM EDT 8:00 PM EDT
Civil Twilight 6:13 AM EDT 8:29 PM EDT
Nautical Twilight 5:39 AM EDT 9:03 PM EDT
Astronomical Twilight 5:03 AM EDT 9:40 PM EDT
Moon 7:37 PM EDT (4/14) 6:14 AM EDT (4/14)
Length of Visible Light 14h 15m
Length of Day
13h 17m
Full, 100% of the Moon is Illuminated
Apr 14
Full
Apr 15
Full
Apr 22
Last Quarter
Apr 29
New
May 6
First Quarter

Hourly Weather History & Observations

Time (EDT) Temp. Dew Point Humidity Pressure Visibility Wind Dir Wind Speed Gust Speed Precip Events Conditions
12:53 AM 70.0 °F 43.0 °F 38% 29.74 in 10.0 mi Variable 6.9 mph - N/A   Clear
1:53 AM 69.1 °F 43.0 °F 39% 29.73 in 10.0 mi South 9.2 mph - N/A   Clear
2:53 AM 68.0 °F 43.0 °F 40% 29.73 in 10.0 mi South 6.9 mph - N/A   Clear
3:53 AM 68.0 °F 45.0 °F 43% 29.70 in 10.0 mi South 8.1 mph - N/A   Clear
5:53 AM 66.0 °F 46.9 °F 50% 29.68 in 10.0 mi South 8.1 mph - N/A   Clear
6:53 AM 66.0 °F 48.0 °F 52% 29.67 in 10.0 mi Variable 6.9 mph - N/A   Clear
7:53 AM 66.9 °F 48.9 °F 52% 29.66 in 10.0 mi South 9.2 mph 17.3 mph N/A   Clear
8:53 AM 69.1 °F 48.9 °F 49% 29.64 in 10.0 mi South 18.4 mph 31.1 mph N/A   Clear
9:53 AM 70.0 °F 48.9 °F 47% 29.65 in 10.0 mi SSW 18.4 mph 28.8 mph N/A   Partly Cloudy
10:53 AM 70.0 °F 48.9 °F 47% 29.65 in 10.0 mi SSW 16.1 mph 33.4 mph N/A   Mostly Cloudy
11:53 AM 71.1 °F 50.0 °F 47% 29.65 in 10.0 mi SSW 15.0 mph 29.9 mph 0.00 in   Overcast
12:53 PM 70.0 °F 50.0 °F 49% 29.62 in 10.0 mi SSW 20.7 mph 29.9 mph N/A   Overcast
2:53 PM 62.1 °F 57.0 °F 84% 29.68 in 10.0 mi SSW 19.6 mph 28.8 mph 0.07 in Rain Light Rain
3:50 PM 62.6 °F 55.4 °F 77% 29.68 in 10.0 mi SSW 16.1 mph 28.8 mph 0.00 in Rain Light Rain
3:53 PM 62.1 °F 55.9 °F 80% 29.66 in 10.0 mi SSW 17.3 mph 28.8 mph 0.00 in Rain Light Rain
4:53 PM 61.0 °F 57.0 °F 87% 29.65 in 4.0 mi SSW 13.8 mph 24.2 mph 0.01 in Rain Light Rain
5:28 PM 61.0 °F 57.0 °F 87% 29.67 in 10.0 mi SSW 12.7 mph - 0.00 in   Overcast
5:53 PM 61.0 °F 57.0 °F 87% 29.66 in 10.0 mi SSW 15.0 mph 24.2 mph 0.00 in   Overcast
6:19 PM 62.1 °F 55.9 °F 80% 29.67 in 10.0 mi SSW 13.8 mph - N/A   Overcast
6:53 PM 62.1 °F 55.9 °F 80% 29.66 in 10.0 mi SSW 11.5 mph 19.6 mph N/A   Overcast
7:07 PM 62.1 °F 55.0 °F 78% 29.68 in 10.0 mi SW 12.7 mph - N/A   Overcast
7:17 PM 61.0 °F 54.0 °F 78% 29.67 in 10.0 mi West 4.6 mph - N/A   Overcast
7:40 PM 57.0 °F 53.1 °F 87% 29.67 in 10.0 mi NW 8.1 mph 16.1 mph 0.00 in   Overcast
7:53 PM 55.0 °F 52.0 °F 89% 29.67 in 10.0 mi WNW 6.9 mph - 0.00 in   Overcast
8:30 PM 53.1 °F 50.0 °F 89% 29.69 in 10.0 mi WNW 6.9 mph - 0.02 in Rain Light Rain
8:41 PM 53.1 °F 50.0 °F 89% 29.69 in 10.0 mi NW 4.6 mph - 0.02 in Rain Light Rain
8:53 PM 53.1 °F 50.0 °F 89% 29.68 in 10.0 mi NW 4.6 mph - 0.03 in   Overcast
9:09 PM 53.1 °F 50.0 °F 89% 29.69 in 10.0 mi NW 3.5 mph - N/A   Overcast
9:30 PM 52.0 °F 50.0 °F 93% 29.70 in 10.0 mi NW 3.5 mph - N/A   Overcast
9:53 PM 53.1 °F 50.0 °F 89% 29.68 in 10.0 mi Calm Calm - 0.00 in Rain Light Rain
10:12 PM 52.0 °F 50.0 °F 93% 29.68 in 10.0 mi NNW 5.8 mph - 0.00 in Rain Light Rain
10:28 PM 52.0 °F 48.9 °F 89% 29.69 in 7.0 mi WNW 3.5 mph - 0.01 in Rain Light Rain
10:53 PM 52.0 °F 48.9 °F 89% 29.67 in 10.0 mi WNW 5.8 mph - 0.01 in Rain Light Rain
11:30 PM 51.1 °F 48.9 °F 92% 29.65 in 7.0 mi East 4.6 mph - 0.01 in Rain Light Rain
11:48 PM 51.8 °F 50.0 °F 94% 29.64 in 7.0 mi Calm Calm - 0.03 in Rain Light Rain
11:53 PM 51.1 °F 48.9 °F 92% 29.62 in 10.0 mi Calm Calm - 0.03 in   Overcast